SCP
-0 0 0 0 0 0 0 0 0 0 0 -0 -0 -0 0 -0 -0 0 0 0 0 0
0 0 0 0 1 0 0 0 0 -0 -0 -0 -0 0 0 0 0 0 0 0 0 0
-0 0 0 1 0 0 1 0 0 -0 -0 -0 -0 0 0 0 0 0 0 0 0 0
-0 -0 -0 0 1 1 1 1 0 0 -0 -0 -0 0 0 -0 -0 0 0 0 0 0
-0 -1 -1 -1 -0 0 1 1 1 0 0 -0 -0 0 0 -0 -0 -0 0 0 0 0
-0 -0 -1 -1 -1 -0 0 1 0 0 0 -0 -0 -0 0 -0 -0 -0 0 0 0 0
-1 -1 -1 -0 -0 -1 -0 0 0 0 1 0 0 0 0 0 0 -0 0 0 0 0
-1 -0 -0 -1 -1 -1 -1 -0 -0 0 1 1 0 0 0 0 0 -0 0 0 0 0
0 -0 -1 -0 -0 -0 -0 -0 -0 -0 1 1 1 0 0 0 0 0 0 0 0 0
1 0 -0 0 0 -0 -0 0 0 0 0 1 1 0 0 0 0 0 0 1 1 0
1 1 1 1 0 1 1 1 1 0 0 1 1 0 0 0 1 1 1 1 1 1
1 2 2 1 1 2 2 2 1 1 0 0 1 0 0 0 1 1 1 1 1 1
3 3 3 3 3 3 3 3 2 2 1 0 0 0 0 0 2 2 3 2 2 1
3 3 3 4 5 3 3 4 4 3 3 2 1 1 0 0 3 3 3 3 2 3
Wind_Speed_500mb
87 86 80 72 64 55 51 49 49 47 49 46 39 35 32 32 28 23 19 19 19 24
94 93 89 81 71 64 54 51 50 49 49 48 45 41 37 35 32 29 25 23 23 26
97 94 92 89 80 73 64 54 57 53 55 51 48 44 43 39 37 35 33 30 29 28
95 92 90 91 84 74 71 64 61 62 59 62 57 52 50 47 43 42 39 37 36 33
96 94 93 91 85 76 74 70 68 64 68 67 64 61 58 53 51 48 48 44 41 41
107 103 103 96 89 85 79 76 72 69 73 73 72 71 66 62 59 55 53 49 44 44
105 105 105 100 92 90 84 82 78 76 72 76 76 78 74 69 67 63 60 56 55 55
93 95 98 101 94 92 91 87 81 80 78 78 80 83 83 80 75 74 66 63 64 61
92 90 93 95 93 91 91 90 87 88 86 82 88 89 85 83 81 80 72 71 67 64
92 91 91 90 90 89 93 91 93 91 91 89 90 94 90 87 82 82 78 77 71 67
92 93 93 91 89 88 92 95 95 94 95 93 93 96 96 94 89 88 82 80 77 69
90 90 90 94 91 90 91 96 99 97 97 99 97 96 95 93 92 94 92 85 86 72
82 84 85 89 92 90 89 93 99 102 99 99 98 98 96 92 92 95 99 92 87 73
71 77 78 81 81 85 86 91 100 105 105 99 96 100 97 88 87 95 97 92 83 77
Wind_Direction_500mb
234 236 237 238 238 238 240 242 239 232 232 233 238 247 248 251 246 242 245 246 250 243
235 236 237 238 237 237 237 239 240 232 233 234 237 239 242 240 239 239 242 244 246 239
235 236 238 239 239 237 237 234 238 235 234 233 233 233 234 234 234 233 237 240 243 243
235 237 238 239 239 239 239 236 236 234 234 233 233 230 230 232 235 235 234 236 240 242
237 237 238 237 237 236 237 235 235 235 233 232 232 230 229 231 233 232 231 233 238 244
238 239 239 238 237 235 235 234 233 233 232 231 230 229 230 232 234 233 232 233 235 238
237 238 240 241 238 236 233 234 232 234 234 232 231 229 230 231 233 232 232 234 238 242
240 239 240 241 239 237 233 231 231 232 233 233 231 230 228 230 233 233 234 236 240 244
240 239 239 239 238 238 236 231 230 230 231 232 231 230 228 230 232 233 234 239 242 246
239 239 237 237 237 234 233 230 229 230 231 231 231 231 229 229 232 234 236 241 245 248
238 240 240 237 236 235 232 231 228 229 231 232 234 233 232 232 235 239 240 243 246 248
241 239 238 239 238 234 232 233 230 230 231 232 234 235 234 233 234 238 241 243 247 248
243 242 241 243 242 238 233 231 233 232 232 236 236 238 237 234 233 238 243 242 245 244
247 247 246 243 241 241 239 237 234 233 233 235 239 240 240 237 233 237 241 243 242 241
Wind_Speed_850mb
87 86 80 72 64 55 51 49 49 47 49 46 39 35 32 32 28 23 19 19 19 24
94 93 89 81 71 64 54 51 50 49 49 48 45 41 37 35 32 29 25 23 23 26
97 94 92 89 80 73 64 54 57 53 55 51 48 44 43 39 37 35 33 30 29 28
95 92 90 91 84 74 71 64 61 62 59 62 57 52 50 47 43 42 39 37 36 33
96 94 93 91 85 76 74 70 68 64 68 67 64 61 58 53 51 48 48 44 41 41
107 103 103 96 89 85 79 76 72 69 73 73 72 71 66 62 59 55 53 49 44 44
105 105 105 100 92 90 84 82 78 76 72 76 76 78 74 69 67 63 60 56 55 55
93 95 98 101 94 92 91 87 81 80 78 78 80 83 83 80 75 74 66 63 64 61
92 90 93 95 93 91 91 90 87 88 86 82 88 89 85 83 81 80 72 71 67 64
92 91 91 90 90 89 93 91 93 91 91 89 90 94 90 87 82 82 78 77 71 67
92 93 93 91 89 88 92 95 95 94 95 93 93 96 96 94 89 88 82 80 77 69
90 90 90 94 91 90 91 96 99 97 97 99 97 96 95 93 92 94 92 85 86 72
82 84 85 89 92 90 89 93 99 102 99 99 98 98 96 92 92 95 99 92 87 73
71 77 78 81 81 85 86 91 100 105 105 99 96 100 97 88 87 95 97 92 83 77
Wind_Direction_850mb
234 236 237 238 238 238 240 242 239 232 232 233 238 247 248 251 246 242 245 246 250 243
235 236 237 238 237 237 237 239 240 232 233 234 237 239 242 240 239 239 242 244 246 239
235 236 238 239 239 237 237 234 238 235 234 233 233 233 234 234 234 233 237 240 243 243
235 237 238 239 239 239 239 236 236 234 234 233 233 230 230 232 235 235 234 236 240 242
237 237 238 237 237 236 237 235 235 235 233 232 232 230 229 231 233 232 231 233 238 244
238 239 239 238 237 235 235 234 233 233 232 231 230 229 230 232 234 233 232 233 235 238
237 238 240 241 238 236 233 234 232 234 234 232 231 229 230 231 233 232 232 234 238 242
240 239 240 241 239 237 233 231 231 232 233 233 231 230 228 230 233 233 234 236 240 244
240 239 239 239 238 238 236 231 230 230 231 232 231 230 228 230 232 233 234 239 242 246
239 239 237 237 237 234 233 230 229 230 231 231 231 231 229 229 232 234 236 241 245 248
238 240 240 237 236 235 232 231 228 229 231 232 234 233 232 232 235 239 240 243 246 248
241 239 238 239 238 234 232 233 230 230 231 232 234 235 234 233 234 238 241 243 247 248
243 242 241 243 242 238 233 231 233 232 232 236 236 238 237 234 233 238 243 242 245 244
247 247 246 243 241 241 239 237 234 233 233 235 239 240 240 237 233 237 241 243 242 241